Total_Precipitation_Accumulation
1.56 1.45 1.06 0.62 0.46 0.39 0.41 0.41 0.36 0.37 0.34 0.38 0.37 0.36 0.35 0.38 0.44 0.43 0.42 0.43 0.53 0.69 0.84 0.92 1.09 1.24 1.35 1.55 1.69 1.74 1.73 1.68 1.67 1.77 1.81 1.76 1.62 1.53 1.43 1.30 1.21 1.17 1.08 1.05
1.47 1.09 0.61 0.42 0.46 0.46 0.45 0.47 0.38 0.38 0.37 0.44 0.45 0.39 0.37 0.41 0.46 0.44 0.43 0.42 0.47 0.61 0.75 0.88 1.02 1.13 1.27 1.43 1.54 1.71 1.74 1.68 1.63 1.61 1.72 1.86 1.94 1.86 1.77 1.65 1.43 1.30 1.22 1.16
1.14 0.72 0.53 0.56 0.61 0.60 0.46 0.41 0.38 0.42 0.45 0.49 0.49 0.49 0.44 0.47 0.42 0.47 0.50 0.50 0.51 0.54 0.68 0.82 0.99 1.09 1.18 1.35 1.46 1.54 1.63 1.65 1.69 1.79 2.00 2.12 2.14 1.97 1.79 1.60 1.44 1.36 1.32 1.29
1.01 0.62 0.65 0.72 0.67 0.59 0.52 0.29 0.32 0.44 0.58 0.65 0.57 0.71 0.58 0.50 0.42 0.45 0.50 0.52 0.54 0.57 0.69 0.82 0.89 1.03 1.14 1.21 1.33 1.42 1.51 1.61 1.66 1.84 1.97 2.00 1.89 1.73 1.60 1.55 1.51 1.48 1.39 1.37
1.03 0.70 0.75 0.82 0.61 0.55 0.50 0.30 0.35 0.50 0.63 0.65 0.48 0.56 0.56 0.40 0.40 0.42 0.44 0.45 0.49 0.56 0.63 0.69 0.75 0.86 0.97 1.05 1.15 1.29 1.37 1.46 1.54 1.68 1.76 1.92 1.88 1.71 1.66 1.64 1.53 1.47 1.40 1.37
0.78 0.69 0.83 0.77 0.53 0.56 0.54 0.54 0.59 0.66 0.89 0.88 0.41 0.44 0.53 0.42 0.41 0.42 0.42 0.44 0.47 0.51 0.57 0.60 0.62 0.70 0.81 0.87 0.94 1.10 1.25 1.28 1.38 1.52 1.60 1.60 1.63 1.55 1.55 1.58 1.50 1.43 1.38 1.32
1.15 0.94 0.81 0.77 0.79 0.80 0.81 1.05 1.33 1.29 1.18 0.73 0.28 0.33 0.44 0.34 0.36 0.41 0.40 0.39 0.39 0.41 0.46 0.49 0.46 0.55 0.68 0.76 0.81 0.92 1.08 1.13 1.19 1.32 1.45 1.51 1.56 1.55 1.51 1.43 1.45 1.42 1.34 1.19
1.19 1.12 0.79 0.81 0.89 0.95 0.84 0.93 1.07 0.92 0.59 0.34 0.23 0.30 0.31 0.23 0.26 0.29 0.30 0.30 0.33 0.37 0.40 0.42 0.42 0.47 0.57 0.65 0.72 0.77 0.89 0.97 1.05 1.11 1.22 1.37 1.43 1.46 1.47 1.40 1.39 1.40 1.32 1.24
0.77 0.85 0.56 0.57 0.59 0.66 0.83 0.81 0.64 0.79 0.53 0.36 0.27 0.26 0.23 0.16 0.18 0.21 0.24 0.25 0.30 0.35 0.36 0.41 0.41 0.45 0.50 0.55 0.61 0.65 0.70 0.82 0.88 0.92 1.02 1.13 1.19 1.20 1.21 1.21 1.22 1.25 1.25 1.17
0.63 0.81 0.58 0.57 0.74 0.71 0.72 0.67 0.79 1.14 0.89 0.51 0.27 0.21 0.25 0.18 0.18 0.19 0.22 0.26 0.30 0.32 0.33 0.37 0.42 0.45 0.46 0.48 0.50 0.53 0.60 0.71 0.79 0.81 0.84 0.90 0.96 1.02 1.01 0.99 1.00 1.04 1.06 1.04
0.57 0.84 0.74 0.75 0.91 0.69 0.66 0.76 0.85 0.87 0.70 0.64 0.38 0.26 0.24 0.22 0.19 0.19 0.21 0.26 0.29 0.30 0.31 0.35 0.39 0.44 0.47 0.51 0.53 0.53 0.54 0.60 0.71 0.72 0.68 0.68 0.75 0.84 0.89 0.88 0.86 0.87 0.91 0.96
0.53 0.83 0.74 0.58 0.50 0.40 0.51 0.54 0.64 0.88 0.63 0.50 0.43 0.29 0.18 0.18 0.21 0.23 0.24 0.27 0.27 0.25 0.27 0.31 0.35 0.41 0.44 0.48 0.54 0.57 0.56 0.58 0.65 0.65 0.63 0.61 0.59 0.66 0.72 0.70 0.69 0.73 0.73 0.77
0.57 0.91 0.91 0.69 0.63 0.58 0.59 0.44 0.47 0.73 0.95 0.70 0.56 0.31 0.15 0.12 0.17 0.22 0.25 0.27 0.24 0.22 0.23 0.25 0.28 0.35 0.40 0.45 0.49 0.51 0.52 0.54 0.59 0.58 0.58 0.61 0.57 0.59 0.64 0.63 0.59 0.60 0.60 0.60
0.80 0.94 0.83 0.72 0.59 0.59 0.56 0.42 0.48 1.00 1.24 0.65 0.36 0.26 0.19 0.16 0.19 0.23 0.27 0.29 0.24 0.23 0.25 0.25 0.27 0.32 0.37 0.40 0.45 0.45 0.47 0.51 0.54 0.53 0.53 0.55 0.56 0.55 0.60 0.59 0.51 0.52 0.52 0.51
0.78 0.97 0.67 0.45 0.37 0.46 0.47 0.43 0.53 0.81 0.75 0.65 0.33 0.26 0.28 0.27 0.27 0.26 0.25 0.25 0.22 0.22 0.25 0.26 0.29 0.31 0.31 0.32 0.35 0.36 0.37 0.40 0.45 0.47 0.48 0.53 0.54 0.53 0.59 0.60 0.54 0.52 0.52 0.50
0.52 0.75 0.65 0.48 0.33 0.40 0.43 0.40 0.45 0.52 0.48 0.46 0.38 0.35 0.25 0.24 0.23 0.24 0.24 0.23 0.24 0.22 0.23 0.24 0.27 0.28 0.27 0.29 0.32 0.32 0.33 0.36 0.41 0.44 0.46 0.48 0.49 0.48 0.52 0.55 0.54 0.54 0.56 0.55
0.33 0.54 0.73 0.58 0.37 0.48 0.58 0.46 0.45 0.43 0.34 0.35 0.39 0.29 0.20 0.22 0.23 0.21 0.18 0.17 0.18 0.17 0.17 0.19 0.21 0.25 0.26 0.24 0.27 0.31 0.35 0.38 0.42 0.46 0.46 0.47 0.47 0.46 0.45 0.46 0.51 0.59 0.64 0.66
0.18 0.38 0.67 0.55 0.46 0.60 0.48 0.34 0.32 0.32 0.27 0.25 0.25 0.18 0.17 0.20 0.22 0.19 0.15 0.12 0.10 0.11 0.11 0.12 0.15 0.19 0.24 0.23 0.24 0.26 0.26 0.29 0.35 0.40 0.40 0.41 0.46 0.50 0.49 0.53 0.61 0.72 0.79 0.84
0.09 0.31 0.60 0.53 0.40 0.27 0.17 0.15 0.17 0.23 0.24 0.18 0.17 0.15 0.13 0.15 0.20 0.20 0.18 0.16 0.11 0.09 0.10 0.09 0.09 0.13 0.17 0.19 0.21 0.22 0.23 0.25 0.28 0.34 0.37 0.38 0.44 0.56 0.66 0.74 0.83 0.89 0.97 1.02
0.09 0.23 0.55 0.48 0.41 0.21 0.10 0.05 0.04 0.12 0.21 0.09 0.10 0.12 0.14 0.15 0.19 0.17 0.14 0.12 0.11 0.10 0.10 0.10 0.08 0.08 0.11 0.13 0.17 0.19 0.22 0.26 0.33 0.40 0.46 0.50 0.57 0.71 0.82 0.87 0.92 0.91 0.91 0.92
0.19 0.32 0.43 0.38 0.36 0.13 0.04 0.03 0.03 0.17 0.21 0.05 0.04 0.09 0.12 0.14 0.15 0.12 0.09 0.09 0.09 0.10 0.12 0.14 0.15 0.16 0.18 0.19 0.24 0.30 0.34 0.41 0.47 0.49 0.57 0.65 0.65 0.67 0.68 0.69 0.69 0.64 0.59 0.56
0.11 0.19 0.20 0.22 0.31 0.17 0.05 0.04 0.08 0.12 0.08 0.04 0.04 0.05 0.08 0.10 0.11 0.10 0.09 0.07 0.07 0.09 0.11 0.14 0.21 0.28 0.32 0.34 0.42 0.48 0.50 0.53 0.53 0.53 0.56 0.58 0.59 0.57 0.53 0.48 0.42 0.35 0.31 0.29
0.08 0.11 0.13 0.16 0.17 0.10 0.05 0.05 0.06 0.05 0.06 0.04 0.04 0.04 0.06 0.08 0.09 0.09 0.09 0.07 0.05 0.05 0.06 0.10 0.15 0.20 0.26 0.30 0.34 0.40 0.40 0.39 0.40 0.40 0.42 0.41 0.39 0.37 0.34 0.31 0.27 0.24 0.22 0.21
0.08 0.06 0.08 0.10 0.07 0.05 0.05 0.04 0.04 0.04 0.05 0.04 0.05 0.05 0.05 0.06 0.06 0.05 0.05 0.06 0.05 0.04 0.04 0.05 0.06 0.07 0.09 0.11 0.16 0.19 0.17 0.17 0.18 0.20 0.23 0.23 0.22 0.20 0.21 0.20 0.20 0.20 0.19 0.18
0.09 0.08 0.09 0.09 0.05 0.05 0.05 0.04 0.04 0.03 0.03 0.04 0.04 0.05 0.06 0.06 0.06 0.06 0.05 0.05 0.05 0.05 0.05 0.05 0.06 0.07 0.08 0.08 0.08 0.09 0.09 0.09 0.09 0.11 0.12 0.14 0.14 0.14 0.15 0.16 0.17 0.19 0.19 0.21
0.04 0.06 0.12 0.12 0.07 0.08 0.07 0.04 0.03 0.02 0.02 0.02 0.03 0.04 0.05 0.05 0.06 0.07 0.06 0.05 0.05 0.05 0.05 0.06 0.07 0.07 0.08 0.08 0.07 0.08 0.08 0.09 0.10 0.11 0.11 0.12 0.13 0.13 0.14 0.15 0.16 0.18 0.19 0.22